Regional Weather Roundup
Issued by NWS

Home | Current Version | Previous Version | Text Only | Print | Product List | Glossary Off
Versions: 1 2 3 4 5 6 7 8 9 10 11 12 13 14 15 16 17 18 19 20 21 22 23 24 25 26 27 28 29 30 31 32 33 34 35 36 37 38 39 40 41 42 43 44 45 46 47 48 49 50

000
ASUS43 KMKX 250611
RWRWI

WISCONSIN REGIONAL WEATHER ROUNDUP
NATIONAL WEATHER SERVICE MILWAUKEE/SULLIVAN WI
100 AM CDT SUN JUN 25 2017

NOTE: "FAIR" INDICATES FEW OR NO CLOUDS BELOW 12,000 FEET WITH NO
SIGNIFICANT WEATHER AND/OR OBSTRUCTIONS TO VISIBILITY.

WIZ001-002-006>008-014>016-023>028-250700-
NORTHWEST WISCONSIN

CITY           SKY/WX    TMP DP  RH WIND       PRES   REMARKS
SUPERIOR ARPT  NOT AVBL
ASHLAND        PTCLDY    51  48  89 W5        29.98S
6HR MIN TEMP:  51; 6HR MAX TEMP:  62;

HAYWARD        CLOUDY    52  49  89 CALM      30.01S
6HR MIN TEMP:  51; 6HR MAX TEMP:  60; 6HR PCP: TRACE;

SIREN          CLEAR     51  47  84 CALM      30.04S
6HR MIN TEMP:  51; 6HR MAX TEMP:  63;

CUMBERLAND     CLEAR     50  45  81 W8        30.03S
RICE LAKE      CLEAR     52  47  83 W6        30.04S
6HR MIN TEMP:  52; 6HR MAX TEMP:  62;

CHETEK         CLEAR     53  48  82 NW7       30.03S
6HR MIN TEMP:  53; 6HR MAX TEMP:  61;

LADYSMITH      MOCLDY    54  48  82 W6        30.02S
6HR MIN TEMP:  53; 6HR MAX TEMP:  61;

EAU CLAIRE     CLEAR     52  46  80 W9        30.03S
6HR MIN TEMP:  52; 6HR MAX TEMP:  60;

MENOMONIE      CLEAR     53  47  80 W7        30.05S
6HR MIN TEMP:  53; 6HR MAX TEMP:  62;

NEW RICHMOND   CLEAR     50  45  84 W6        30.06S
6HR MIN TEMP:  50; 6HR MAX TEMP:  63;

OSCEOLA        CLEAR     54  48  81 W6        30.09S
6HR MIN TEMP:  52; 6HR MAX TEMP:  61;

$$

WIZ003>005-009-010-017-018-250700-
NORTH CENTRAL WISCONSIN

CITY           SKY/WX    TMP DP  RH WIND       PRES   REMARKS
MANITOWISH WTR CLOUDY    51  51 100 NW7       29.96S
6HR MIN TEMP:  51; 6HR MAX TEMP:  55; 6HR PCP:  0.01;

ARBOR VITAE    LGT RAIN  53  51  93 NW7       29.95F
6HR MIN TEMP:  53; 6HR MAX TEMP:  59;

WOODRUFF       LGT RAIN  53  51  93 NW7       29.95F
6HR MIN TEMP:  53; 6HR MAX TEMP:  59;

RHINELANDER    LGT RAIN  51  50  96 W8        29.97S
6HR MIN TEMP:  49; 6HR MAX TEMP:  53; 6HR PCP:  0.08;

EAGLE RIVER    LGT RAIN  51  51 100 W7        29.94F
6HR MIN TEMP:  51; 6HR MAX TEMP:  57;

LAND O LAKES   DRIZZLE   52  51  97 NW7       29.95S
6HR MIN TEMP:  52; 6HR MAX TEMP:  54;

PHILLIPS       MOCLDY    51  49  92 CALM      29.98S
6HR MIN TEMP:  51; 6HR MAX TEMP:  55;

TOMAHAWK       NOT AVBL
MEDFORD        MOCLDY    49  47  93 W6        29.99S
6HR MIN TEMP:  49; 6HR MAX TEMP:  58;

MERRILL        CLOUDY    51  50  95 W6        29.98S
6HR MIN TEMP:  51; 6HR MAX TEMP:  63; 6HR PCP:  0.11;

$$

WIZ029-030-035-036-043>047-250700-
CENTRAL WISCONSIN

CITY           SKY/WX    TMP DP  RH WIND       PRES   REMARKS
WAUSAU         MOCLDY    53  48  83 W9        29.97S
6HR MIN TEMP:  53; 6HR MAX TEMP:  61; 6HR PCP: TRACE;

MOSINEE        MOCLDY    52  48  87 W8        30.00S
MARSHFIELD     PTCLDY    50  45  83 W7        30.00F
6HR MIN TEMP:  50; 6HR MAX TEMP:  58; 6HR PCP: TRACE;

STEVENS POINT  CLOUDY    51  46  86 W8        30.00F
6HR MIN TEMP:  50; 6HR MAX TEMP:  63;

WAUPACA        PTCLDY    52  50  92 W6        30.00S
6HR MIN TEMP:  52; 6HR MAX TEMP:  69;

WAUTOMA        CLEAR     49  47  93 W6        30.02S
6HR MIN TEMP:  49; 6HR MAX TEMP:  65;

WISC RAPIDS    PTCLDY    50  47  89 W8        30.02F
6HR MIN TEMP:  50; 6HR MAX TEMP:  63;

CAMP DOUGLAS   CLEAR     47  46  97 W6        30.03S
6HR MIN TEMP:  45; 6HR MAX TEMP:  53; 6HR PCP:  0.04;

$$

WIZ011>013-019>022-031-037>040-048>050-250700-
NORTHEAST WISCONSIN

CITY           SKY/WX    TMP DP  RH WIND       PRES   REMARKS
ANTIGO         CLOUDY    51  48  89 W7        29.97F
6HR MIN TEMP:  51; 6HR MAX TEMP:  61;

SHAWANO        CLOUDY    57  48  71 W5        29.97S
6HR MIN TEMP:  57; 6HR MAX TEMP:  67;

OCONTO         CLOUDY    51  50  97 CALM      29.95F
6HR MIN TEMP:  49; 6HR MAX TEMP:  62; 6HR PCP:  0.44;

STURGEON BAY     N/A     53  51  93 S8          N/A
6HR MIN TEMP:  52; 6HR MAX TEMP:  61;

GREEN BAY      MOCLDY    54  48  80 W7        29.97S
6HR MIN TEMP:  54; 6HR MAX TEMP:  67;

MANITOWOC      LGT RAIN  55  47  74 NW6       29.98S
6HR MIN TEMP:  55; 6HR MAX TEMP:  67; 6HR PCP:  0.03;

APPLETON       PTCLDY    50  45  81 W9        29.97S
CLINTONVILLE   RAIN      54  46  76 W6        29.98S
OSHKOSH        CLEAR     52  46  80 W8        29.98F
6HR MIN TEMP:  52; 6HR MAX TEMP:  65; 6HR PCP:  0.01;

$$

WIZ032>034-041-042-053>061-250700-
SOUTHWEST WISCONSIN

CITY           SKY/WX    TMP DP  RH WIND       PRES   REMARKS
LA CROSSE      CLEAR     60  49  66 CALM      30.06S
6HR MIN TEMP:  57; 6HR MAX TEMP:  61;

SPARTA         CLEAR     47  47 100 CALM      30.06S
6HR MIN TEMP:  47; 6HR MAX TEMP:  53;

VIROQUA        CLEAR     50  49  98 W5        30.07S
6HR MIN TEMP:  49; 6HR MAX TEMP:  54;

BOSCOBEL       CLEAR     52  51  97 S3        30.08S
6HR MIN TEMP:  52; 6HR MAX TEMP:  60; 6HR PCP:  0.01;

PRAIRIE DU CHI CLEAR     55  47  76 CALM      30.09R
6HR MIN TEMP:  52; 6HR MAX TEMP:  59;

PLATTEVILLE    CLEAR     51  51 100 SW5       30.09S
6HR MIN TEMP:  51; 6HR MAX TEMP:  60;

$$

WIZ056-057-062-063-064-067-068-250700-
SOUTH CENTRAL WISCONSIN

CITY           SKY/WX    TMP DP  RH WIND       PRES   REMARKS
REEDSBURG      CLEAR     51  49  93 W6        30.04F
6HR MIN TEMP:  49; 6HR MAX TEMP:  55;

BARABOO/DELLS  CLEAR     48  46  93 SW5       30.04F
6HR MIN TEMP:  48; 6HR MAX TEMP:  57; 6HR PCP:  0.01;

LONE ROCK      CLEAR     52  49  89 CALM      30.06S
6HR MIN TEMP:  51; 6HR MAX TEMP:  59; 6HR PCP: TRACE;

MINERAL POINT  CLEAR     52  52 100 W5        30.07F
MADISON        CLEAR     53  50  89 VRB3      30.04F
6HR MIN TEMP:  53; 6HR MAX TEMP:  57; 6HR PCP:  0.01;

MIDDLETON      CLEAR     51  51 100 W8        30.06S
6HR MIN TEMP:  51; 6HR MAX TEMP:  57;

WATERTOWN      CLEAR     51  51 100 W3        30.03S
6HR MIN TEMP:  51; 6HR MAX TEMP:  65;

MONROE         CLEAR     52  46  82 W10       30.07S
JANESVILLE     CLEAR     54  52  94 W6        30.06S
$$

WIZ051-052-058>065-066-070>072-250700-
SOUTHEAST WISCONSIN

CITY           SKY/WX    TMP DP  RH WIND       PRES   REMARKS
MILWAUKEE      PTCLDY    56  49  77 W13       30.02S
6HR MIN TEMP:  56; 6HR MAX TEMP:  71; 6HR PCP: TRACE;

WAUKESHA       CLEAR     50  46  87 W9        30.04S
MILWAUKEE/TIMM CLEAR     52  45  76 W9        30.03S
RACINE         CLEAR     54  48  80 W9        30.04S
6HR MIN TEMP:  54; 6HR MAX TEMP:  70; 6HR PCP: TRACE;

KENOSHA        CLEAR     54  48  80 W10       30.04R
6HR MIN TEMP:  51; 6HR MAX TEMP:  68;

FOND DU LAC    CLEAR     52  45  77 SW7       30.01S
6HR MIN TEMP:  52; 6HR MAX TEMP:  67;

SHEBOYGAN      PTCLDY    54  47  77 W12       29.98S
6HR MIN TEMP:  54; 6HR MAX TEMP:  67;

WEST BEND      CLEAR     52  46  82 W10       30.01S
JUNEAU         CLEAR     49  47  90 SW7       30.04S
6HR MIN TEMP:  49; 6HR MAX TEMP:  64;

$$

LSZ147-162-250700-
LAKE SUPERIOR

STATION/POSITION TIME  TEMP    WIND        PRES    WAVE
                       AIR SEA DIR/SP/G            HT/PER
                 (UTC) (F)     (DEG/KT/KT) (MB)    (FT/S)
W MID LAKE BUOY  0550   44 39  300/  6/  8 1014.5R   1
DEVILS ISLAND    0500   52     310/ 10/ 11 1015.0R
SAXON HARBOR     0540   57     220/  5/  8 1014.6S
$$

LMZ867-665-643>646-250700-
LAKE MICHIGAN

STATION/POSITION TIME  TEMP    WIND        PRES    WAVE
                       AIR SEA DIR/SP/G            HT/PER
                 (UTC) (F)     (DEG/KT/KT) (MB)    (FT/S)
CHAMBERS ISLAND  0530   56     230/  4/  9 1013.5R
S GREEN BAY BUOY 0600   60     260/ 10/ 12 1014.0
N MID LAKE BUOY  0550   56 57     CALM     1013.7F   1
NORTHPORT PIER   0540



USA.gov is the U.S. government's official web portal to all federal, state and local government web resources and services.